Weather History for Evanston, WY

Change the Weather History Date:

Thursday, June 20, 2013

  Actual Average Record
Temperature  
Mean Temperature 53 °F 59 °F  
Max Temperature 70 °F 73 °F 86 °F (2007)
Min Temperature 36 °F 46 °F 36 °F (2012)
Degree Days  
Heating Degree Days 12 6  
Month to date heating degree days 100 185  
Since 1 June heating degree days 100 185  
Since 1 July heating degree days 7991 8527  
Cooling Degree Days 0 0  
Month to date cooling degree days 10 0  
Year to date cooling degree days 10 1  
Since 1 June cooling degree days 10 0  
Growing Degree Days 2 (Base 50)    
Moisture  
Dew Point 22 °F    
Average Humidity 31    
Maximum Humidity 47    
Minimum Humidity 15    
Precipitation  
Precipitation 0.00 in 0.05 in 0.05 in (2003)
Month to date precipitation T 0.89  
Year to date precipitation 2.01 5.82  
Sea Level Pressure  
Sea Level Pressure 29.88 in    
Wind  
Wind Speed 7 mph (WNW)    
Max Wind Speed 17 mph    
Max Gust Speed 29 mph    
Visibility 10 miles    
Events      
T = Trace of Precipitation, MM = Missing Value Source: NWS Daily Summary

Daily Weather History Graph

Daily Weather History Graph

Search for Another Location

Airport:

Trip Planner

Search our weather history database for the weather conditions in past years. The results will help you decide how hot, cold, wet, or windy it might be!

Date:

Astronomy

Jun. 20, 2013 Rise Set
Actual Time 5:51 AM MDT 9:00 PM MDT
Civil Twilight 5:17 AM MDT 9:34 PM MDT
Nautical Twilight 4:33 AM MDT 10:17 PM MDT
Astronomical Twilight 3:41 AM MDT 11:09 PM MDT
Moon 6:05 PM MDT (6/20) 3:21 AM MDT (6/20)
Length of Visible Light 16h 17m
Length of Day
15h 09m
Waxing Gibbous, 89% of the Moon is Illuminated
Jun 20
Waxing Gibbous
Jun 23
Full
Jun 29
Last Quarter
Jul 8
New
Jul 15
First Quarter

Hourly Weather History & Observations

Time (MDT) Temp. Windchill Dew Point Humidity Pressure Visibility Wind Dir Wind Speed Gust Speed Precip Events Conditions
12:53 AM 45.0 °F 42.6 °F 19.9 °F 37% 29.86 in 10.0 mi NW 4.6 mph - N/A   Clear
1:53 AM 43.0 °F 39.5 °F 18.0 °F 37% 29.86 in 10.0 mi NNW 5.8 mph - N/A   Clear
2:53 AM 43.0 °F 41.3 °F 19.9 °F 40% 29.86 in 10.0 mi NNE 3.5 mph - N/A   Clear
3:53 AM 39.9 °F - 19.0 °F 43% 29.88 in 10.0 mi Calm Calm - N/A   Clear
4:53 AM 36.0 °F 33.3 °F 18.0 °F 48% 29.92 in 10.0 mi SE 3.5 mph - N/A   Clear
5:53 AM 36.0 °F 31.1 °F 18.0 °F 48% 29.94 in 10.0 mi South 5.8 mph - N/A   Clear
6:53 AM 36.0 °F 33.3 °F 18.0 °F 48% 29.98 in 10.0 mi SE 3.5 mph - N/A   Clear
7:53 AM 43.0 °F 39.5 °F 23.0 °F 45% 29.95 in 10.0 mi ESE 5.8 mph - N/A   Clear
8:53 AM 48.0 °F - 24.1 °F 39% 29.95 in 10.0 mi East 5.8 mph - N/A   Clear
9:53 AM 52.0 °F - 21.0 °F 30% 29.93 in 10.0 mi Calm Calm - N/A   Clear
10:53 AM 57.0 °F - 21.0 °F 25% 29.91 in 10.0 mi Variable 6.9 mph - N/A   Clear
11:53 AM 61.0 °F - 21.9 °F 22% 29.89 in 10.0 mi NW 5.8 mph - N/A   Clear
12:53 PM 63.0 °F - 19.9 °F 19% 29.86 in 10.0 mi WNW 8.1 mph - N/A   Clear
1:53 PM 64.9 °F - 19.0 °F 17% 29.85 in 10.0 mi Variable 6.9 mph 18.4 mph N/A   Clear
2:53 PM 68.0 °F - 19.0 °F 15% 29.82 in 10.0 mi SW 21.9 mph 29.9 mph N/A   Clear
3:53 PM 68.0 °F - 26.1 °F 21% 29.83 in 10.0 mi WSW 10.4 mph 27.6 mph N/A   Clear
4:53 PM 66.9 °F - 27.0 °F 22% 29.86 in 10.0 mi West 11.5 mph 20.7 mph N/A   Clear
5:53 PM 66.0 °F - 25.0 °F 21% 29.87 in 10.0 mi West 16.1 mph 20.7 mph N/A   Clear
6:53 PM 64.0 °F - 24.1 °F 22% 29.88 in 10.0 mi West 15.0 mph 19.6 mph N/A   Clear
7:53 PM 62.1 °F - 25.0 °F 24% 29.87 in 10.0 mi WNW 11.5 mph - N/A   Clear
8:53 PM 57.9 °F - 24.1 °F 27% 29.88 in 10.0 mi WNW 4.6 mph - N/A   Clear
9:53 PM 55.0 °F - 24.1 °F 30% 29.87 in 10.0 mi NW 5.8 mph - N/A   Clear
10:53 PM 54.0 °F - 24.1 °F 31% 29.85 in 10.0 mi NNW 6.9 mph - N/A   Clear
11:53 PM 51.1 °F - 25.0 °F 36% 29.85 in 10.0 mi East 8.1 mph - N/A   Clear